Skip Page Navigation
NASA JPL Caltech
NASA Logo - Jet Propulsion Laboratory + View the NASA Portal
+ Near-Earth Object (NEO) Program
Search JPL
JPL Home Earth Solar System Stars & Galaxies Technology
JPL Solar System Dynamics
BODIES ORBITS EPHEMERIDES TOOLS PHYSICAL DATA DISCOVERY FAQ SITE MAP
JPL Small-Body Database Browser
Search: [ help ]  
134363 (1994 VG3)
Classification: Main-belt Asteroid          SPK-ID: 2134363
Ephemeris | Orbit Diagram | Orbital Elements | Physical Parameters | Discovery Circumstances | Close-Approach Data ]

[ show orbit diagram ]
Orbital Elements at Epoch 2457000.5 (2014-Dec-09.0) TDB
Reference: JPL 7 (heliocentric ecliptic J2000)
 Element Value Uncertainty (1-sigma)   Units 
e .3228990225255124 1.7281e-07  
a 2.550811198711005 3.2469e-08 AU
q 1.727156756000091 4.5918e-07 AU
i 8.380655952524952 7.0833e-06 deg
node 44.26518532887015 7.4927e-05 deg
peri 326.9454584461087 7.8297e-05 deg
M 349.607574521391 3.639e-05 deg
tp 2457043.456641321071
(2015-Jan-20.95664132)
0.00015118 JED
period 1488.044432689571
4.07
2.8412e-05
7.779e-08
d
yr
n .24192825972899 4.6192e-09 deg/d
Q 3.374465641421919 4.2953e-08 AU
  Orbit Determination Parameters
   # obs. used (total)      169  
   data-arc span      7243 days (19.83 yr)  
   first obs. used      1994-10-26  
   last obs. used      2014-08-25  
   planetary ephem.      DE431  
   SB-pert. ephem.      SB431-BIG16  
   condition code      0  
   fit RMS      .62588  
   data source      ORB  
   producer      Otto Matic  
   solution date      2014-Sep-12 16:17:49  

Additional Information
 Earth MOID = .734945 AU 
 T_jup = 3.351 
[ show covariance matrix ]

Ephemeris | Orbit Diagram | Orbital Elements | Physical Parameters | Discovery Circumstances | Close-Approach Data ]

Physical Parameter Table
Parameter Symbol Value Units Sigma Reference Notes
absolute magnitude H 16.2 mag n/a MPO302679  

134363 (1994 VG3)          Discovered 1994-Nov-07 by Ueda, S., Kaneda, H. at Kushiro (399)
Reference: 20060907/Numbers.arcLast Updated: 2006-09-10

[ show close-approach data ]
Alternate Designations
 1994 VG3 = 1998 UR33 
Ephemeris | Orbit Diagram | Orbital Elements | Physical Parameters | Discovery Circumstances | Close-Approach Data ]
ABOUT SSD CREDITS/AWARDS PRIVACY/COPYRIGHT GLOSSARY LINKS
FirstGov 2014-Sep-23 00:16 UT
(server date/time)  
NASA Home Page
Site Manager:   Donald K. Yeomans
Webmaster  Alan B. Chamberlin